Location: B�rgermoos
(47.6500°N, 9.0667°E)
Time: 09:15:04
(UTC+00:00)

A-11 Canister half - Pass Details

Date: 05 August 2021
Orbit: 1526 x 1683 km, 47.3° (Epoch: 20 September)

Event Time Altitude Azimuth Distance (km) Brightness Sun altitude
Rises 06:41:45 0° 165° (SSE) 4,907 11.9 24.4°
Reaches altitude 10° 06:48:55 10° 131° (SE) 3,940 12.1 25.6°
Maximum altitude 06:50:44 11° 120° (ESE) 3,894 12.4 26.0°
Drops below altitude 10° 06:52:32 10° 110° (ESE) 3,944 12.7 26.3°
Sets 06:59:40 0° 76° (ENE) 4,927 12.8 27.5°
